Погода в Плеханах

Россия / Владимирская область     56°20′21″N   38°27′22″E
темп.,
°C
ветер,
м/с
пор.,
м/с
влажн.,
%
обл.,
%
осадки,
мм/ч
давл.,
гПа
погр.,
м
22 апреля, чт
чт2200:00+3ю3795100 0.0 1011250
03:00+3ю3797100 0.0 1012243
06:00+3ю399498 0.3 1013367
09:00+7ююз5880100 0.3 1013633
12:00+10ююз5871100 0.1 10141153
15:00+12ююз586398 0.5 10141442
18:00+11ю486967 0.7 1014553
21:00+7ююв3108928 0.7 1015219
23 апреля, пт
пт2300:00+6ююв3119360 0.0 1015284
03:00+6ююв3119618 0.0 1015274
06:00+6ююв4139544 0.0 1014355
09:00+11ю597256 0.0 1015690
12:00+15ю7125162 0.3 10132216
15:00+15ю6125167 1.0 10132111
18:00+12юз387385 1.3 1013703
21:00+8зсз249271 2.1 1013205
24 апреля, сб
сб2400:00+7св2494100 0.1 1011189
03:00+7ююв31092100 0.1 1007670
06:00+4сз3596100 0.5 1006427
09:00+1зсз41198100 7.6 1007373
12:00+3зюз3997100 1.5 1008464
15:00+7з4670100 1.9 10081227
18:00+7зсз37691 0.3 1007579
21:00+2зюз28892 0.3 1009145
25 апреля, вс
вс2500:000зюз39905 0.0 1009206
03:00−1зюз28922 0.0 1009158
06:00−1зюз38915 0.0 1010252
09:00+4зюз46705 0.0 1010950
12:00+7зюз5756100 0.4 10091749
15:00+7зюз5754100 1.2 10101742
18:00+5зюз486763 0.8 1010982
21:00+1зюз39865 0.8 1012296
26 апреля, пн
пн2600:00−1юз29905 0.0 1013213
03:00−1ююз29915 0.0 1013226
06:00−1ююз28885 0.0 1013269
09:00+4юз46655 0.0 1013905
12:00+7юз4646100 0.3 10122149
15:00+8юз464499 0.3 10112020
18:00+6зюз136250 0.6 1011737
21:00+2юз1182100 0.9 101110